Content
SEND FEEDBACK

Daily
Averages
Monthly
Summary
United States of America

VOLCANO, HAWAII


Home > North America > United States > Hawaii
Elevation: 3800 feet     Latitude: 19 26N     Longitude: 155 16W

WEATHER
 
SELECT A DAY
Number of Records: 230,085;   Date Range: 1/1/95 - 8/12/14
 
SHARE

PRINT THIS DATA

[ ← Previous Day ]
WEATHER ALMANAC - MARCH 22, 2013
[ Next Day → ]
[ °C ]   °F
Weather ElementAverageHighLow
Temperature73.1 °F81 °F (11:53 am)64 °F (4:53 am)
Dewpoint62.7 °F66 °F (10:53 am)55 °F (6:53 am)
Humidity70.3 %84 % (2:53 am)58 % (12:48 pm)
Barometer30.00 in30.06 in (8:53 am)29.93 in (2:53 pm)
Wind Speed7 mph17.3 mph (11:53 am)
Wind Gust23 mph (12:48 pm)
Weather ElementAverage
Visibility10 mi
Wind DirectionESE (124.2 °)

Weather ElementTotal
Precipitation---
Cooling Degree Days7.5 (Base 65)
Growing Degree Days22.5 (Base 50)
Averaged from 24 records on March 22, 2013
WEATHER CONDITIONS BREAKOUT
WIND DIRECTION BREAKOUT
WEATHER BY HOUR - MARCH 22, 2013
[ °C ]   °F
Local TimeTemperatureDewpointHumidityBarometerVisibilityWind DirectionWind SpeedGust SpeedPrecipitationEventsConditions
1:53 AM66.9 °F61.0 °F81 %30.05 in10.0 miSW (220°)3.5 mphScattered Clouds
2:53 AM66.0 °F61.0 °F84 %30.03 in10.0 miCalmMostly Cloudy
3:53 AM64.9 °F57.9 °F78 %30.02 in10.0 miSW (220°)5.8 mphMostly Cloudy
4:53 AM64.0 °F57.0 °F78 %30.01 in10.0 miSW (230°)4.6 mphMostly Cloudy
5:53 AM64.0 °F57.0 °F78 %30.01 in10.0 miSSW (200°)5.8 mphMostly Cloudy
6:53 AM64.9 °F55.0 °F70 %30.02 in10.0 miSSW (210°)3.5 mphMostly Cloudy
7:53 AM72.0 °F60.1 °F66 %30.05 in10.0 miCalmMostly Cloudy
8:53 AM75.9 °F64.0 °F67 %30.06 in10.0 miSE (130°)8.1 mphMostly Cloudy
9:53 AM78.1 °F64.9 °F64 %30.05 in10.0 miESE (120°)10.4 mphMostly Cloudy
10:53 AM80.1 °F66.0 °F62 %30.03 in10.0 miESE (120°)15.0 mphOvercast
11:53 AM81.0 °F66.0 °F60 %30.01 in10.0 miESE (110°)17.3 mphOvercast
12:48 PM80.6 °F64.4 °F58 %29.98 in10.0 miSE (130°)15.0 mph23.0 mphOvercast
12:53 PM80.1 °F64.9 °F60 %29.98 in10.0 miSE (130°)15.0 mph23.0 mphOvercast
1:53 PM80.1 °F64.0 °F58 %29.95 in10.0 miESE (110°)13.8 mphOvercast
2:53 PM78.1 °F63.0 °F60 %29.93 in10.0 miESE (120°)12.7 mphOvercast
3:53 PM75.9 °F64.9 °F69 %29.93 in10.0 miEast (100°)11.5 mphMostly Cloudy
4:53 PM75.9 °F66.0 °F71 %29.94 in10.0 miESE (110°)10.4 mphMostly Cloudy
5:53 PM75.9 °F63.0 °F64 %29.96 in10.0 miSSE (160°)4.6 mphOvercast
6:53 PM73.9 °F64.0 °F71 %29.98 in10.0 miCalmMostly Cloudy
7:53 PM73.0 °F64.0 °F73 %29.99 in10.0 miCalmOvercast
8:53 PM72.0 °F64.0 °F76 %30.00 in10.0 miCalmOvercast
9:53 PM71.1 °F64.9 °F81 %30.01 in10.0 miSE (140°)3.5 mphOvercast
10:53 PM71.1 °F64.0 °F78 %30.01 in10.0 miSouth (190°)4.6 mphOvercast
11:53 PM70.0 °F64.0 °F81 %29.99 in10.0 miSW (230°)3.5 mphOvercast
Hourly data recorded from PHTO, located miles away from Volcano, Hawaii







STORIES FROM OUR PARTNERS